GW6178 Weather Reports


time (UTC)temp
C
wind
direction
speed
KPH
gust
KPH
rain 1hr
cm
rain 24hr
cm
rain mn
cm
humidity
%
barometer
mb
20260902153518 22 294 3.2 11.3 0.00 0.00 0.00 52 1021.9
20260902152517 22 312 3.2 11.3 0.00 0.00 0.00 52 1021.9
20260902151517 22 299 3.2 12.9 0.00 0.00 0.00 51 1021.9
20260902150517 22 280 4.8 9.7 0.00 0.00 0.00 51 1021.9
20260902145517 22 289 1.6 9.7 0.00 0.00 0.00 51 1021.9
20260902144517 22 275 4.8 11.3 0.00 0.00 0.00 51 1022.1
20260902143516 22 313 3.2 9.7 0.00 0.00 0.00 51 1022.0
20260902142516 22 300 3.2 9.7 0.00 0.00 0.00 50 1022.0
20260902141555 22 261 3.2 12.9 0.00 0.00 0.00 49 1022.1
20260902140540 22 290 3.2 11.3 0.00 0.00 0.00 50 1022.0
20260902135520 21 297 4.8 11.3 0.00 0.00 0.00 52 1022.1
20260902134520 21 324 3.2 6.4 0.00 0.03 0.00 53 1022.1
20260902133519 21 298 3.2 9.7 0.00 0.08 0.00 53 1022.1
20260902132518 21 315 4.8 12.9 0.00 0.08 0.00 54 1022.3
20260902131517 21 316 4.8 11.3 0.00 0.08 0.00 54 1022.2
20260902130537 21 304 3.2 9.7 0.00 0.08 0.00 55 1022.4
20260902125517 21 324 1.6 11.3 0.00 0.08 0.00 56 1022.2
20260902124516 20 294 1.6 4.8 0.00 0.08 0.00 60 1022.3
20260902123519 20 305 4.8 14.5 0.00 0.08 0.00 60 1022.4
20260902122518 21 287 1.6 4.8 0.00 0.08 0.00 61 1022.4
20260902121517 19 283 1.6 6.4 0.00 0.08 0.00 64 1022.5
20260902120516 20 296 3.2 11.3 0.00 0.08 0.00 65 1022.5
20260902115516 18 304 3.2 4.8 0.00 0.08 0.00 65 1022.5
20260902114515 18 308 3.2 6.4 0.00 0.08 0.00 67 1022.7
20260902113540 19 307 3.2 6.4 0.00 0.08 0.00 69 1022.7
20260902112640 19 308 1.6 9.7 0.00 0.08 0.00 72 1022.7
20260902111559 19 275 3.2 9.7 0.00 0.08 0.00 72 1022.8
20260902110519 18 285 3.2 6.4 0.00 0.08 0.00 73 1022.7
20260902105518 18 293 3.2 6.4 0.00 0.08 0.00 75 1022.8
20260902104520 18 324 3.2 9.7 0.00 0.08 0.00 75 1022.9
20260902103518 18 306 3.2 11.3 0.00 0.08 0.00 76 1022.9
20260902102517 18 159 1.6 6.4 0.00 0.08 0.00 76 1022.9
20260902101517 18 209 3.2 6.4 0.00 0.08 0.00 77 1023.0
20260902100516 18 222 1.6 4.8 0.00 0.08 0.00 77 1023.0
20260902095520 18 172 3.2 9.7 0.00 0.08 0.00 76 1022.9
20260902094519 18 202 1.6 6.4 0.00 0.08 0.00 75 1022.8
20260902093518 18 167 1.6 6.4 0.00 0.08 0.00 75 1022.7
20260902092519 18 162 3.2 9.7 0.00 0.08 0.00 75 1022.7
20260902091518 18 155 3.2 9.7 0.00 0.08 0.00 75 1022.7
20260902090517 18 143 4.8 11.3 0.00 0.08 0.00 76 1022.7
20260902085518 17 173 4.8 11.3 0.00 0.08 0.00 77 1022.8
20260902085036 17 125 1.6 6.4 0.00 0.08 0.00 80 1022.8
20260902084017 17 104 8.0 11.3 0.00 0.08 0.00 80 1022.5
20260902083015 16 111 8.0 12.9 0.00 0.08 0.00 80 1022.5
20260902082038 16 102 4.8 9.7 0.00 0.08 0.00 81 1022.5
20260902081015 16 99 4.8 9.7 0.00 0.08 0.00 81 1022.7
20260902080020 16 108 4.8 9.7 0.00 0.08 0.00 82 1022.5
20260902075019 16 98 4.8 9.7 0.00 0.08 0.00 84 1022.6
20260902074038 15 96 6.4 11.3 0.00 0.08 0.00 85 1022.6
20260902073017 15 97 4.8 9.7 0.00 0.08 0.00 86 1022.6
20260902072018 15 95 3.2 9.7 0.00 0.08 0.00 87 1022.6
20260902071035 14 101 6.4 14.5 0.00 0.08 0.00 88 1022.6
20260902070019 15 98 3.2 9.7 0.00 0.08 0.00 88 1022.6
20260902065017 15 120 6.4 12.9 0.00 0.08 0.00 88 1022.7
20260902064020 14 108 6.4 12.9 0.00 0.08 0.00 89 1022.4
20260902063018 14 88 6.4 11.3 0.00 0.08 0.00 90 1022.4
20260902062020 13 97 4.8 9.7 0.00 0.08 0.00 91 1022.4
20260902061018 13 108 6.4 11.3 0.00 0.08 0.00 92 1022.5
20260902060020 13 115 4.8 9.7 0.00 0.08 0.00 92 1022.6
20260902055015 13 92 6.4 9.7 0.00 0.08 0.00 93 1022.5
20260902054017 13 111 4.8 9.7 0.00 0.08 0.00 94 1022.6
20260902053019 13 116 4.8 9.7 0.00 0.08 0.00 94 1022.6
20260902052016 13 102 4.8 9.7 0.00 0.08 0.00 95 1022.6
20260902051018 12 102 3.2 6.4 0.00 0.08 0.00 95 1022.5
20260902050020 12 111 4.8 9.7 0.00 0.08 0.00 95 1022.5
20260902045039 12 102 6.4 11.3 0.00 0.08 0.00 96 1022.4
20260902044016 12 115 4.8 6.4 0.00 0.08 0.00 96 1022.5
20260902043015 12 106 3.2 6.4 0.00 0.08 0.00 96 1022.5
20260902042020 12 112 3.2 4.8 0.00 0.08 0.00 96 1022.7
20260902041016 12 118 3.2 6.4 0.00 0.08 0.00 96 1022.8
20260902040039 12 106 4.8 6.4 0.00 0.08 0.00 96 1022.8
20260902035017 12 104 4.8 6.4 0.00 0.08 0.00 96 1022.9
20260902034016 12 111 3.2 6.4 0.00 0.08 0.00 96 1022.8
20260902033019 12 96 1.6 3.2 0.00 0.08 0.00 97 1022.6
20260902032037 12 110 1.6 4.8 0.00 0.08 0.00 97 1022.7
20260902031019 12 102 1.6 3.2 0.00 0.08 0.00 97 1022.8
20260902030018 12 110 1.6 3.2 0.00 0.08 0.00 97 1022.9
20260902025016 12 101 1.6 3.2 0.00 0.08 0.00 97 1023.0
20260902024019 12 104 1.6 3.2 0.00 0.08 0.00 97 1023.1
20260902023037 12 111 0.0 3.2 0.00 0.08 0.00 97 1023.2
20260902022015 12 109 0.0 1.6 0.00 0.08 0.00 96 1023.1
20260902021019 12 118 1.6 3.2 0.00 0.08 0.00 96 1023.1
20260902020017 12 102 1.6 3.2 0.00 0.08 0.00 96 1023.1
20260902015055 12 117 1.6 3.2 0.00 0.08 0.00 96 1023.3
20260902014039 12 93 1.6 3.2 0.00 0.08 0.00 96 1023.1
20260902013017 12 114 4.8 6.4 0.00 0.08 0.00 96 1022.9
20260902012015 12 103 4.8 6.4 0.00 0.08 0.00 96 1022.9
20260902011018 12 100 3.2 6.4 0.00 0.08 0.00 96 1022.8
20260902010056 12 106 3.2 6.4 0.00 0.08 0.00 96 1022.7
20260902005020 12 107 1.6 3.2 0.00 0.08 0.00 96 1022.9
20260902004018 12 92 1.6 3.2 0.00 0.08 0.00 96 1022.9
20260902003036 12 104 1.6 4.8 0.00 0.08 0.00 96 1023.1
20260902002019 13 112 1.6 3.2 0.00 0.08 0.00 96 1023.1
20260902001017 13 110 1.6 3.2 0.00 0.08 0.00 95 1023.3
20260902000015 13 114 1.6 3.2 0.00 0.08 0.00 95 1023.3
20260901235019 13 0.0 0.0 0.00 0.08 0.00 95 1023.4
20260901234017 13 0.0 0.0 0.00 0.08 0.00 95 1023.4
20260901233015 13 0.0 0.0 0.00 0.08 0.00 95 1023.2
20260901232019 13 0.0 0.0 0.00 0.08 0.00 95 1023.4
20260901231017 13 0.0 0.0 0.00 0.08 0.00 95 1023.3
20260901230101 13 0.0 0.0 0.00 0.08 0.00 94 1023.3
20260901225038 13 0.0 0.0 0.00 0.08 0.00 94 1023.3
20260901224035 13 0.0 0.0 0.00 0.08 0.00 94 1023.3
20260901223019 13 0.0 0.0 0.00 0.08 0.00 94 1023.4
20260901222017 14 0.0 0.0 0.00 0.08 0.00 93 1023.3
20260901221015 14 0.0 0.0 0.00 0.08 0.00 93 1023.3
20260901220039 14 89 0.0 1.6 0.00 0.08 0.08 92 1023.2
20260901215018 15 0.0 0.0 0.00 0.08 0.08 91 1023.2
20260901214016 15 0.0 0.0 0.00 0.08 0.08 90 1023.2
20260901213018 15 114 0.0 3.2 0.00 0.08 0.08 89 1023.1
20260901212016 15 275 0.0 1.6 0.00 0.08 0.08 90 1023.2
20260901211019 16 0.0 0.0 0.00 0.08 0.08 88 1023.2
20260901210015 15 191 0.0 3.2 0.00 0.08 0.08 89 1023.2
20260901205018 15 0.0 0.0 0.00 0.08 0.08 89 1023.2
20260901204039 16 111 0.0 1.6 0.00 0.08 0.08 89 1023.1
20260901203038 16 34 0.0 1.6 0.00 0.08 0.08 88 1023.2
20260901202021 16 267 0.0 1.6 0.00 0.08 0.08 88 1023.2
20260901201017 16 168 1.6 3.2 0.00 0.08 0.08 87 1023.0
20260901200019 16 175 1.6 6.4 0.00 0.08 0.08 87 1023.2
20260901195017 16 185 1.6 4.8 0.00 0.08 0.08 87 1023.1
20260901194016 16 282 1.6 4.8 0.00 0.08 0.08 87 1023.1
20260901193059 16 199 1.6 4.8 0.00 0.08 0.08 87 1023.1
20260901192017 16 195 1.6 4.8 0.00 0.08 0.08 86 1023.1
20260901191020 16 139 1.6 3.2 0.00 0.08 0.08 86 1023.0
20260901190017 16 261 1.6 4.8 0.00 0.08 0.08 85 1022.9
20260901185020 17 203 0.0 1.6 0.00 0.08 0.08 85 1022.8
20260901184016 17 237 0.0 3.2 0.00 0.08 0.08 84 1022.6
20260901183017 17 172 1.6 9.7 0.00 0.08 0.08 83 1022.6
20260901182019 17 247 0.0 3.2 0.00 0.08 0.08 82 1022.4
20260901181016 17 279 1.6 4.8 0.00 0.08 0.08 81 1022.4
20260901180018 17 270 1.6 4.8 0.00 0.08 0.08 81 1022.3
20260901175019 17 291 1.6 6.4 0.00 0.08 0.08 80 1022.1
20260901174017 18 252 3.2 6.4 0.00 0.08 0.08 79 1022.1
20260901173037 18 298 3.2 9.7 0.00 0.08 0.08 78 1022.1
20260901172019 18 253 4.8 11.3 0.00 0.08 0.08 78 1022.0
20260901171016 18 266 3.2 6.4 0.00 0.08 0.08 78 1021.9
20260901170017 18 205 3.2 12.9 0.00 0.08 0.08 81 1021.7
20260901165019 18 232 4.8 11.3 0.00 0.13 0.08 80 1021.8
20260901164016 18 295 3.2 11.3 0.00 0.25 0.08 80 1021.8
20260901163018 18 271 3.2 12.9 0.00 0.30 0.08 79 1021.8
20260901162016 18 215 3.2 9.7 0.00 0.36 0.08 79 1021.9
20260901161018 18 284 3.2 11.3 0.00 0.36 0.08 78 1021.8
20260901160035 18 280 3.2 11.3 0.00 0.36 0.08 78 1021.8
20260901155017 18 265 3.2 11.3 0.00 0.36 0.08 78 1021.8
20260901154019 18 287 3.2 9.7 0.00 0.36 0.08 77 1021.9